TimeEDT,TemperatureF,Dew PointF,Humidity,Sea Level PressureIn,VisibilityMPH,Wind Direction,Wind SpeedMPH,Gust SpeedMPH,PrecipitationIn,Events,Conditions,WindDirDegrees,DateUTC
12:14 AM,60.4,45.7,58,30.16,10.0,Calm,Calm,-,N/A,,Clear,0,2013-05-03 04:14:00
12:34 AM,58.1,45.9,64,30.16,10.0,East,3.5,-,N/A,,Clear,80,2013-05-03 04:34:00
12:54 AM,55.6,44.8,67,30.17,10.0,East,4.6,-,N/A,,Clear,100,2013-05-03 04:54:00
1:14 AM,52.7,43.9,72,30.17,10.0,East,5.8,-,N/A,,Clear,90,2013-05-03 05:14:00
1:34 AM,50.5,42.8,75,30.17,10.0,ESE,3.5,-,N/A,,Clear,110,2013-05-03 05:34:00
1:54 AM,50.0,42.4,75,30.16,10.0,ESE,3.5,-,N/A,,Clear,110,2013-05-03 05:54:00
2:14 AM,48.0,42.3,80,30.15,10.0,Calm,Calm,-,N/A,,Clear,0,2013-05-03 06:14:00
2:34 AM,48.2,42.8,82,30.15,10.0,Calm,Calm,-,N/A,,Clear,0,2013-05-03 06:34:00
2:54 AM,47.7,42.6,83,30.15,10.0,Calm,Calm,-,N/A,,Clear,0,2013-05-03 06:54:00
3:14 AM,47.3,42.6,84,30.14,10.0,Calm,Calm,-,N/A,,Clear,0,2013-05-03 07:14:00
3:34 AM,47.3,42.4,83,30.14,10.0,Calm,Calm,-,N/A,,Clear,0,2013-05-03 07:34:00
3:54 AM,47.1,42.1,83,30.14,10.0,Calm,Calm,-,N/A,,Clear,0,2013-05-03 07:54:00
4:14 AM,48.2,43.0,82,30.14,10.0,NNE,3.5,-,N/A,,Clear,30,2013-05-03 08:14:00
4:34 AM,48.7,45.0,87,30.14,10.0,Calm,Calm,-,N/A,,Clear,0,2013-05-03 08:34:00
4:54 AM,48.9,44.8,86,30.14,10.0,Calm,Calm,-,N/A,,Clear,0,2013-05-03 08:54:00
5:14 AM,46.6,43.2,88,30.14,10.0,Calm,Calm,-,N/A,,Scattered Clouds,0,2013-05-03 09:14:00
5:34 AM,46.2,41.5,84,30.14,10.0,Calm,Calm,-,N/A,,Clear,0,2013-05-03 09:34:00
5:54 AM,45.9,41.9,86,30.15,10.0,NNE,3.5,-,N/A,,Clear,30,2013-05-03 09:54:00
6:14 AM,47.5,42.8,84,30.15,10.0,ENE,3.5,-,N/A,,Clear,60,2013-05-03 10:14:00
6:34 AM,46.2,41.5,84,30.15,10.0,Calm,Calm,-,N/A,,Clear,0,2013-05-03 10:34:00
6:54 AM,43.9,40.3,87,30.15,10.0,Calm,Calm,-,N/A,,Scattered Clouds,0,2013-05-03 10:54:00
7:14 AM,44.6,41.5,89,30.15,10.0,Calm,Calm,-,N/A,,Mostly Cloudy,0,2013-05-03 11:14:00
7:34 AM,46.6,43.9,90,30.15,10.0,Calm,Calm,-,N/A,,Scattered Clouds,0,2013-05-03 11:34:00
7:54 AM,50.7,43.2,75,30.15,10.0,Calm,Calm,-,N/A,,Scattered Clouds,0,2013-05-03 11:54:00
8:14 AM,51.6,43.3,73,30.15,10.0,Calm,Calm,-,N/A,,Mostly Cloudy,0,2013-05-03 12:14:00
8:34 AM,53.4,43.0,68,30.15,10.0,East,3.5,-,N/A,,Mostly Cloudy,100,2013-05-03 12:34:00
8:54 AM,55.2,41.9,61,30.15,10.0,ESE,3.5,-,N/A,,Mostly Cloudy,120,2013-05-03 12:54:00
9:14 AM,57.7,42.3,56,30.16,10.0,ESE,4.6,-,N/A,,Mostly Cloudy,120,2013-05-03 13:14:00
9:34 AM,58.5,41.9,54,30.16,10.0,East,4.6,-,N/A,,Overcast,100,2013-05-03 13:34:00
9:54 AM,56.3,42.4,60,30.16,10.0,East,6.9,-,N/A,,Overcast,90,2013-05-03 13:54:00
10:14 AM,57.4,42.8,58,30.16,10.0,East,5.8,-,N/A,,Mostly Cloudy,90,2013-05-03 14:14:00
10:34 AM,56.7,42.3,59,30.16,10.0,East,5.8,-,N/A,,Scattered Clouds,80,2013-05-03 14:34:00
10:54 AM,58.5,41.9,54,30.15,10.0,East,4.6,-,N/A,,Clear,90,2013-05-03 14:54:00
11:14 AM,59.4,41.4,51,30.15,10.0,ESE,9.2,-,N/A,,Clear,110,2013-05-03 15:14:00
11:34 AM,59.9,41.5,51,30.15,10.0,ESE,9.2,-,N/A,,Clear,120,2013-05-03 15:34:00
11:54 AM,60.3,41.5,50,30.16,10.0,ESE,10.4,-,N/A,,Clear,110,2013-05-03 15:54:00
12:14 PM,60.3,41.5,50,30.16,10.0,ESE,10.4,-,N/A,,Clear,120,2013-05-03 16:14:00
12:34 PM,62.6,42.3,47,30.15,10.0,ESE,8.1,-,N/A,,Clear,120,2013-05-03 16:34:00
12:54 PM,64.2,43.5,47,30.15,10.0,ESE,6.9,-,N/A,,Clear,120,2013-05-03 16:54:00
1:14 PM,63.5,43.5,48,30.14,10.0,East,6.9,-,N/A,,Clear,100,2013-05-03 17:14:00
1:34 PM,63.3,43.5,48,30.14,10.0,East,8.1,-,N/A,,Clear,100,2013-05-03 17:34:00
1:54 PM,61.0,43.2,52,30.14,10.0,ESE,5.8,-,N/A,,Clear,110,2013-05-03 17:54:00
2:14 PM,62.2,44.1,51,30.14,10.0,ESE,8.1,-,N/A,,Clear,110,2013-05-03 18:14:00
2:34 PM,61.2,43.9,53,30.14,10.0,East,10.4,-,N/A,,Clear,100,2013-05-03 18:34:00
2:54 PM,63.7,45.3,51,30.14,10.0,SE,8.1,-,N/A,,Clear,130,2013-05-03 18:54:00
3:14 PM,64.2,45.7,51,30.13,10.0,ESE,6.9,-,N/A,,Clear,110,2013-05-03 19:14:00
3:34 PM,65.1,45.7,49,30.13,10.0,ESE,11.5,-,N/A,,Clear,110,2013-05-03 19:34:00
3:54 PM,66.2,45.7,48,30.13,10.0,ESE,12.7,-,N/A,,Clear,120,2013-05-03 19:54:00
4:14 PM,65.8,45.9,48,30.13,10.0,ESE,9.2,-,N/A,,Clear,120,2013-05-03 20:14:00
4:34 PM,67.6,46.6,47,30.12,10.0,SE,6.9,-,N/A,,Clear,140,2013-05-03 20:34:00
4:54 PM,69.1,47.5,46,30.12,10.0,ESE,10.4,-,N/A,,Scattered Clouds,120,2013-05-03 20:54:00
5:15 PM,67.5,47.5,49,30.11,10.0,ESE,5.8,-,N/A,,Scattered Clouds,120,2013-05-03 21:15:00
5:34 PM,66.0,47.3,51,30.11,10.0,ESE,10.4,-,N/A,,Scattered Clouds,120,2013-05-03 21:34:00
5:54 PM,65.3,46.8,51,30.11,10.0,ESE,9.2,-,N/A,,Clear,120,2013-05-03 21:54:00
6:14 PM,64.4,45.5,50,30.11,10.0,ESE,9.2,-,N/A,,Clear,110,2013-05-03 22:14:00
6:34 PM,64.4,44.8,49,30.11,10.0,ESE,6.9,-,N/A,,Clear,120,2013-05-03 22:34:00
6:54 PM,65.3,44.6,47,30.11,10.0,SE,9.2,-,N/A,,Clear,130,2013-05-03 22:54:00
7:14 PM,65.7,44.6,47,30.11,10.0,SE,10.4,-,N/A,,Clear,140,2013-05-03 23:14:00
7:34 PM,65.5,43.9,46,30.11,10.0,SE,10.4,-,N/A,,Clear,130,2013-05-03 23:34:00
7:54 PM,65.3,42.8,44,30.11,10.0,SE,6.9,-,N/A,,Clear,130,2013-05-03 23:54:00
8:14 PM,65.1,41.7,42,30.11,10.0,SE,6.9,-,N/A,,Clear,140,2013-05-04 00:14:00
8:34 PM,64.4,39.9,41,30.12,10.0,SE,5.8,-,N/A,,Clear,130,2013-05-04 00:34:00
8:54 PM,62.6,38.7,41,30.12,10.0,SE,6.9,-,N/A,,Clear,130,2013-05-04 00:54:00
9:14 PM,60.6,38.7,44,30.13,10.0,ESE,4.6,-,N/A,,Clear,110,2013-05-04 01:14:00
9:34 PM,59.2,37.8,45,30.13,10.0,ESE,4.6,-,N/A,,Clear,110,2013-05-04 01:34:00
9:54 PM,58.5,37.6,46,30.13,10.0,ESE,3.5,-,N/A,,Clear,110,2013-05-04 01:54:00
10:14 PM,55.9,38.3,52,30.13,10.0,ENE,4.6,-,N/A,,Clear,70,2013-05-04 02:14:00
10:34 PM,55.4,39.6,55,30.14,10.0,East,5.8,-,N/A,,Clear,100,2013-05-04 02:34:00
10:54 PM,50.4,40.5,69,30.14,10.0,ENE,5.8,-,N/A,,Clear,60,2013-05-04 02:54:00
11:14 PM,47.5,40.5,77,30.14,10.0,NE,4.6,-,N/A,,Clear,50,2013-05-04 03:14:00
11:34 PM,48.0,40.1,74,30.14,10.0,NE,5.8,-,N/A,,Clear,50,2013-05-04 03:34:00
11:54 PM,46.2,39.7,78,30.14,10.0,NE,5.8,-,N/A,,Clear,50,2013-05-04 03:54:00